[ hide orbit diagram ]
For accurate long-term ephemerides, please instead use our Horizons system.This orbit viewer was implemented using two-body methods, and hence should not be used for determining accurate long-term trajectories (over several years or decades) or planetary encounter circumstances.
Orbital Elements at Epoch 2459200.5 (2020-Dec-17.0) TDB
Reference: JPL 14 (heliocentric ecliptic J2000)
Element | Value | Uncertainty (1-sigma) | Units |
e | .1578864530726559 | 4.551e-08 | |
a | 2.40844771907411 | 1.4664e-08 | au |
q | 2.02818645129857 | 1.0789e-07 | au |
i | 5.733983193436883 | 4.8838e-06 | deg |
node | 74.85539688153428 | 6.7312e-05 | deg |
peri | 163.4943677403561 | 7.0506e-05 | deg |
M | 216.6972793371297 | 2.3746e-05 | deg |
tp | 2459743.945750257755 (2022-Jun-13.44575026) | 9.2024e-05 | TDB |
period | 1365.225092641819 3.74 | 1.2469e-05 3.414e-08 | d yr |
n | .2636927799967193 | 2.4083e-09 | deg/d |
Q | 2.788708986849649 | 1.698e-08 | au |
|
| | Orbit Determination Parameters
Additional Information
|
[ show covariance matrix ]
Physical Parameter Table
Parameter |
Symbol |
Value |
Units |
Sigma |
Reference |
Notes |
absolute magnitude |
H |
16.7 |
|
n/a |
MPO506840 |
|
|
196298 (2003 FQ) Discovered 2003-Mar-22 by Ticha, J., Tichy, M. at Klet |
Reference: 20081113/Numbers.arc | Last Updated: 2008-11-17 |
|
|